Location: Mentone
(34.5413°N, 85.5351°W)
Time: 22:34:27
(UTC-05:00)

Centaur AC-72 - Visible Passes

Search period start: 05 May 2016 00:00
Search period end: 15 May 2016 00:00
Orbit: 1116 x 35241 km, 19.6° (Epoch: 04 May)

Date Brightness Start Highest point End Pass type
(mag) Time Alt. Az. Time Alt. Az. Time Alt. Az.
05 May 7.2 14:56:16 10° SW 17:51:39 71° SSW 00:23:05 39° SSW visible
06 May 7.0 12:03:53 10° SSW 19:11:07 65° SE 21:40:05 26° SE visible
08 May 7.7 17:45:54 10° W 19:45:36 41° WSW 02:52:15 10° WSW visible
09 May 7.2 14:40:15 10° SW 17:37:53 71° SSW 00:09:15 37° SSW visible
10 May 6.9 11:48:01 10° SSW 18:55:29 64° SE 21:26:13 23° SE visible
12 May 7.6 17:29:13 10° W 19:29:12 42° WSW 02:38:21 10° WSW visible
13 May 7.1 14:24:14 10° SW 17:24:26 72° SSW 23:55:19 35° S visible
14 May 6.9 11:32:09 10° SSW 18:39:49 63° SE 21:12:17 19° SE visible
